Location: Conjunto Santa Maria
(19.9513°S, 43.9599°W)
Time: 12:31:05
(UTC+00:00)

Aureole 3 Rocket - Pass Details

Date: 21 January 2021
Orbit: 398 x 1740 km, 82.5° (Epoch: 03 March)

Event Time Altitude Azimuth Distance (km) Brightness Sun altitude
Rises 22:21:35 0° 9° (N) 2,975 6.2 -9.6°
Reaches altitude 10° 22:23:34 10° 14° (NNE) 2,218 5.5 -10.0°
Maximum altitude 22:28:27 54° 91° (E) 1,099 4.0 -11.1°
Drops below altitude 10° 22:35:22 10° 166° (SSE) 3,129 6.8 -12.5°
Sets 22:38:36 0° 169° (S) 4,315 7.6 -13.2°
